Location: 22
(39.7117°N, 89.5929°W)
Time: 08:14:26
(UTC-05:00)

Transit 2A - Pass Details

Date: 07 August 2024
Orbit: 590 x 961 km, 66.7° (Epoch: 13 September)

Event Time Altitude Azimuth Distance (km) Brightness Sun altitude
Rises 14:08:52 0° 328° (NNW) 3,649 9.4 62.5°
Reaches altitude 10° 14:11:27 10° 326° (NNW) 2,702 8.9 62.2°
Maximum altitude 14:17:47 69° 245° (WSW) 1,009 8.8 61.5°
Drops below altitude 10° 14:23:50 10° 163° (SSE) 2,580 9.1 60.7°
Sets 14:26:16 0° 161° (SSE) 3,474 9.6 60.4°
